Regional Weather Roundup
Issued by NWS Kansas City/Pleasant Hill, MO

Home | Current Version | Previous Version | Graphics & Text | Print | Product List | Glossary Off
Versions: 1 2 3 4 5 6 7 8 9 10 11 12 13 14 15 16 17 18 19 20 21 22 23 24 25 26 27 28 29 30 31 32 33 34 35 36 37 38 39 40 41 42 43 44 45 46 47 48 49 50

000
ASUS43 KEAX 220410
RWREAX

WEATHER ROUNDUP FOR EASTERN KANSAS AND NORTHWEST MISSOURI
NATIONAL WEATHER SERVICE KANSAS CITY/PLEASANT HILL MO
1100 PM CDT THU MAY 21 2015

KSZ040-057-103>105-MOZ028-029-037-043-220500-
...KANSAS CITY METROPOLITAN AREA...

CITY           SKY/WX    TMP DP  RH WIND       PRES   REMARKS
K.C. INTL      MOCLDY    57  44  62 SW7       30.21R
K.C. DOWNTOWN  CLEAR     59  47  64 CALM      30.20R
LEES SUMMIT    CLEAR     54  44  69 S5        30.21R
OLATHE - IXD   PTCLDY    54  47  77 S5        30.23R
OLATHE - OJC   CLEAR     55  48  77 CALM      30.21R
LAWRENCE       PTCLDY    51  48  89 CALM      30.22R

$$

MOZ001>008-011>017-020>025-030>033-038>040-044>046-053-054-220500-
...NORTHERN AND CENTRAL MISSOURI...

CITY           SKY/WX    TMP DP  RH WIND       PRES   REMARKS
ST. JOSEPH     PTCLDY    54  49  83 S3        30.20R
MOSBY          CLEAR     52  50  93 CALM      30.20S
WARRENSBURG    CLEAR     52  46  82 S5        30.21R
WHITEMAN AFB   CLEAR     53  47  79 SW5       30.20R
CLINTON        CLEAR     52  50  93 CALM      30.22S
SEDALIA        CLEAR     56  46  69 SW7       30.22R
WARSAW         NOT AVBL
CHILLICOTHE      N/A     56  46  69 CALM      30.18S
KIRKSVILLE     CLEAR     56  47  71 SW6       30.16R

$$

MOZ041-047>049-056>058-063>065-088>090-097-220500-
...EASTERN AND SOUTHERN MISSOURI...

CITY           SKY/WX    TMP DP  RH WIND       PRES   REMARKS
ST. LOUIS INTL CLEAR     57  42  57 CALM      30.18S
SPIRIT OF STL  CLEAR     48  46  93 CALM      30.17F
COLUMBIA       CLEAR     54  45  71 SW7       30.19S
JEFFERSON CITY CLEAR     53  46  77 CALM      30.20R
ROLLA          CLEAR     47  42  83 SW6       30.19S
OSAGE BEACH    CLEAR     46  43  87 CALM      30.22R
SPRINGFIELD    CLEAR     50  44  80 CALM      30.22R
JOPLIN         CLEAR     49  47  93 CALM      30.25R
WEST PLAINS    CLEAR     47  43  86 CALM      30.24R

$$

IAZ060-094-KSZ022-034>040-054-083-096-NEZ052-066-093-220500-
...KANSAS...SOUTHEAST NEBRASKA AND IOWA...

CITY           SKY/WX    TMP DP  RH WIND       PRES   REMARKS
TOPEKA         MOCLDY    55  50  83 CALM      30.23R
MANHATTAN      PTCLDY    52  48  86 CALM      30.23R
EMPORIA        CLEAR     51  46  83 S6        30.24R
CHANUTE        CLEAR     52  49  89 CALM      30.24R
WICHITA        PTCLDY    55  45  68 SE7       30.23R
OMAHA          PTCLDY    62  40  44 W6        30.17R
LINCOLN        PTCLDY    58  41  53 W5        30.21R
FALLS CITY     PTCLDY    57  43  59 SW8       30.19R
LAMONI         CLEAR     60  44  55 W12       30.15R
DES MOINES     CLEAR     61  41  47 NW5       30.12R

$$



USA.gov is the U.S. government's official web portal to all federal, state and local government web resources and services.